[[{"header":{"parameterUnit":"m.s-1","parameterCategory":1,"la1":30.2991,"la2":30.254,"lo1":-89.0895,"lo2":-89.0444,"dy":0.0017,"dx":0.0017,"nx":28,"ny":28,"refTime":"2025-11-10T09:00:00:Z","depth":0,"parameterNumber":2,"parameterNumberName":"U-component_of_WINDS"},"data":[0,0,0,0,0,0,0,0,0,0,0,0,0,0,0,0,0,0,0,0,0,0,0,0,0,0,0,0,0,0,0,0,0,0,0,0,0,0,0,0,0,0,0,0,0,0,0,0,0,0,0,0,0,0,0,0,0,0,-0.4613,-0.4613,0,-0.4576,-0.4575,-0.4575,-0.4521,-0.452,-0.4519,-0.4518,-0.448,-0.4479,-0.4479,0,0,0,0,0,0,0,0,0,0,0,0,0,-0.464,-0.4639,-0.4613,-0.4613,-0.4612,-0.4576,-0.4575,-0.4575,-0.4521,-0.452,-0.4519,-0.4518,-0.448,-0.4479,-0.4479,0,0,0,0,0,0,0,0,0,0,0,0,0,-0.4618,-0.4639,-0.4613,-0.4581,-0.4578,-0.4576,-0.4575,-0.4574,-0.4521,-0.452,-0.4518,-0.4517,-0.448,-0.4479,-0.4479,-0.4506,0,0,-0.4479,-0.4478,0,0,0,0,0,0,0,0,-0.4619,-0.4617,-0.4586,-0.4583,-0.458,-0.4551,-0.457,-0.4551,-0.4521,-0.4543,-0.4518,-0.4516,-0.4505,-0.4502,-0.4498,-0.4504,-0.4502,-0.4479,-0.4478,-0.4478,-0.4478,0,0,0,0,0,0,0,-0.4621,-0.4618,-0.4598,-0.4586,-0.4582,-0.4569,-0.4564,-0.4566,-0.4532,-0.4541,-0.4537,-0.4533,-0.4503,-0.4499,-0.4497,-0.4502,-0.4479,-0.4478,-0.4478,-0.4478,-0.4528,-0.4529,0,0,0,0,0,0,-0.4627,-0.462,-0.46,-0.4597,-0.4596,-0.4569,-0.4564,-0.4562,-0.4532,-0.4526,-0.4534,-0.4531,-0.45,-0.4497,-0.4495,-0.4525,-0.4478,-0.4478,-0.4478,-0.4526,-0.4528,-0.4529,0,0,0,0,0,0,-0.4628,-0.4626,-0.4601,-0.4607,-0.4603,-0.457,-0.4568,-0.4562,-0.4558,-0.4527,-0.452,-0.4536,-0.4498,-0.4496,-0.4504,-0.4522,-0.4478,-0.4478,-0.4524,-0.4527,-0.4529,-0.4583,0,0,0,0,0,0,-0.4629,-0.4626,-0.4636,-0.4608,-0.4603,-0.461,-0.4569,-0.4562,-0.4558,-0.4553,-0.4527,-0.4522,-0.4497,-0.4504,-0.4503,-0.4521,-0.4478,-0.4523,-0.4525,-0.4528,-0.458,-0.4587,-0.4593,0,0,0,0,0,-0.463,-0.4653,-0.4636,-0.4634,-0.4614,-0.4611,-0.4608,-0.458,-0.4559,-0.4569,-0.4549,-0.4523,-0.4521,-0.4506,-0.4504,-0.4522,-0.4521,-0.4525,-0.4528,-0.4577,-0.4586,-0.4593,0,0,0,0,0,0,-0.4683,-0.4648,-0.463,-0.4645,-0.4631,-0.4602,-0.4613,-0.459,-0.4582,-0.4578,-0.4542,-0.4537,-0.455,-0.4537,-0.452,-0.4546,-0.4517,-0.452,-0.4555,-0.4563,-0.457,-0.4573,-0.4477,0,0,0,0,0,-0.4697,-0.4697,-0.4666,-0.4682,-0.4677,-0.4646,-0.4644,-0.4623,-0.4607,-0.4602,-0.4582,-0.4569,-0.4565,-0.4563,-0.4558,-0.4577,-0.4571,-0.4589,-0.4596,-0.4602,-0.4605,-0.4615,-0.4623,-0.454,-0.454,-0.454,0,0,-0.4725,-0.4706,-0.4708,-0.4693,-0.468,-0.4681,-0.4642,-0.4645,-0.4645,-0.4602,-0.4608,-0.4594,-0.4576,-0.459,-0.4595,-0.458,-0.4627,-0.4606,-0.4611,-0.4611,-0.4619,-0.4627,-0.4634,-0.4542,-0.4542,-0.4542,0,0,-0.4777,-0.4762,-0.4774,-0.4762,-0.4743,-0.4723,-0.4726,-0.47,-0.4688,-0.4694,-0.4662,-0.4662,-0.4656,-0.4645,-0.4639,-0.4687,-0.4663,-0.4686,-0.4722,-0.4732,-0.4739,-0.4744,-0.4762,-0.4768,-0.4689,-0.469,-0.469,0,-0.4814,-0.4814,-0.4783,-0.4788,-0.4782,-0.4743,-0.4755,-0.4745,-0.4725,-0.4722,-0.4705,-0.4697,-0.4683,-0.4694,-0.4705,-0.4702,-0.4704,-0.4689,-0.474,-0.4746,-0.475,-0.4766,-0.4773,-0.4693,-0.4692,-0.4692,-0.4692,0,-0.4861,-0.4862,-0.4873,-0.4856,-0.4851,-0.486,-0.483,-0.4829,-0.4809,-0.479,-0.4797,-0.4778,-0.4769,-0.477,-0.475,-0.4778,-0.4769,-0.4747,-0.4716,-0.4762,-0.4776,-0.4782,-0.4697,-0.4696,-0.4695,-0.4694,0,0,-0.4945,-0.491,-0.4915,-0.4907,-0.4883,-0.4883,-0.489,-0.488,-0.4881,-0.4869,-0.4874,-0.487,-0.4849,-0.4842,-0.4821,-0.4829,-0.4869,-0.4806,-0.4805,-0.4818,-0.4899,-0.4917,-0.4924,-0.4853,-0.4854,-0.4854,-0.4901,0,-0.4992,-0.5002,-0.4974,-0.499,-0.4991,-0.4954,-0.496,-0.4946,-0.493,-0.4928,-0.4909,-0.4907,-0.488,-0.4875,-0.4882,-0.4863,-0.4885,-0.4859,-0.4857,-0.4857,-0.4863,-0.4932,-0.495,-0.4995,-0.4906,-0.4907,-0.4908,0,-0.5048,-0.5039,-0.5056,-0.5032,-0.5031,-0.5037,-0.5026,-0.5025,-0.5009,-0.4996,-0.4988,-0.4963,-0.4969,-0.494,-0.4946,-0.493,-0.4927,-0.4918,-0.4919,-0.4917,-0.4886,-0.4933,-0.5008,-0.5015,-0.4917,-0.4916,-0.4915,0,-0.5108,-0.5101,-0.5109,-0.5103,-0.5075,-0.508,-0.5069,-0.5052,-0.5048,-0.5039,-0.5036,-0.5028,-0.5023,-0.5018,-0.4991,-0.4972,-0.5001,-0.497,-0.4991,-0.4992,-0.4999,-0.4999,-0.5075,-0.4997,-0.4997,-0.4997,-0.4997,0,-0.5164,-0.5176,-0.5136,-0.5142,-0.5154,-0.5122,-0.5135,-0.512,-0.5105,-0.5107,-0.5075,-0.5078,-0.5042,-0.5041,-0.5021,-0.503,-0.5028,-0.5018,-0.5012,-0.5021,-0.5022,-0.5019,-0.5015,-0.4999,-0.4998,-0.4998,-0.4998,0,-0.5233,-0.5207,-0.5214,-0.5187,-0.5181,-0.5191,-0.5168,-0.5172,-0.5153,-0.5157,-0.5156,-0.5126,-0.5124,-0.5097,-0.5088,-0.5074,-0.5091,-0.5079,-0.5097,-0.5093,-0.5116,-0.5114,-0.5193,-0.5202,-0.5118,-0.5119,-0.512,0,-0.527,-0.5279,-0.5253,-0.5252,-0.5242,-0.5241,-0.5237,-0.5206,-0.5203,-0.5186,-0.5192,-0.5187,-0.5181,-0.5178,-0.5156,-0.515,-0.5138,-0.5166,-0.5136,-0.5145,-0.5138,-0.5138,-0.5139,-0.5172,-0.5173,-0.5174,-0.5175,0,-0.5339,-0.5326,-0.5322,-0.5313,-0.5309,-0.5301,-0.5291,-0.5292,-0.5258,-0.5257,-0.5253,-0.5249,-0.524,-0.5235,-0.5225,-0.5213,-0.5189,-0.5184,-0.5189,-0.5198,-0.5207,-0.5203,-0.5114,-0.5183,-0.5182,-0.5181,-0.5181,-0.518,-0.5394,-0.5399,-0.5382,-0.5378,-0.5367,-0.5359,-0.5361,-0.5343,-0.534,-0.533,-0.5312,-0.5312,-0.5296,-0.5279,-0.527,-0.5269,-0.5254,-0.5261,-0.5263,-0.5265,-0.527,-0.5208,-0.5267,-0.5267,-0.5266,-0.5266,-0.5266,0,-0.5461,-0.5448,-0.5445,-0.5432,-0.5429,-0.5406,-0.5394,-0.5393,-0.5393,-0.538,-0.5375,-0.5372,-0.5367,-0.5345,-0.5338,-0.5342,-0.533,-0.5341,-0.534,-0.5338,-0.5283,-0.528,-0.535,-0.535,-0.535,-0.535,-0.535,-0.535,-0.5496,-0.5505,-0.5489,-0.5492,-0.5479,-0.5479,-0.5473,-0.5465,-0.5455,-0.5453,-0.5449,-0.5434,-0.5418,-0.5409,-0.5404,-0.5398,-0.5397,-0.5411,-0.5401,-0.535,-0.5342,-0.5334,-0.5331,-0.5411,-0.5411,-0.5456,-0.5457,-0.5457]},{"header":{"parameterUnit":"m.s-1","parameterCategory":1,"la1":30.2991,"la2":30.254,"lo1":-89.0895,"lo2":-89.0444,"dy":0.0017,"dx":0.0017,"nx":28,"ny":28,"refTime":"2025-11-10T09:00:00:Z","depth":0,"parameterNumber":3,"parameterNumberName":"V-component_of_WINDS"},"data":[0,0,0,0,0,0,0,0,0,0,0,0,0,0,0,0,0,0,0,0,0,0,0,0,0,0,0,0,0,0,0,0,0,0,0,0,0,0,0,0,0,0,0,0,0,0,0,0,0,0,0,0,0,0,0,0,0,0,0.9325,0.9324,0,0.9265,0.9264,0.9263,0.9278,0.9279,0.928,0.9281,0.9217,0.9214,0.9212,0,0,0,0,0,0,0,0,0,0,0,0,0,0.945,0.9448,0.9325,0.9324,0.9323,0.9265,0.9264,0.9263,0.9278,0.9279,0.928,0.9282,0.9218,0.9215,0.9211,0,0,0,0,0,0,0,0,0,0,0,0,0,0.9393,0.9447,0.9325,0.9324,0.9323,0.9265,0.9264,0.9263,0.9277,0.9279,0.9281,0.9282,0.9219,0.9215,0.9211,0.915,0,0,0.9198,0.9196,0,0,0,0,0,0,0,0,0.9397,0.9389,0.9324,0.9324,0.9323,0.9281,0.9285,0.9225,0.9277,0.9294,0.9281,0.9283,0.9237,0.9231,0.9216,0.9147,0.9144,0.9198,0.9195,0.9193,0.9192,0,0,0,0,0,0,0,0.94,0.9391,0.9301,0.9324,0.9322,0.9325,0.9319,0.9273,0.9256,0.9293,0.9294,0.9287,0.9236,0.922,0.9214,0.9143,0.9198,0.9194,0.9191,0.919,0.9021,0.9019,0,0,0,0,0,0,0.9405,0.9395,0.9303,0.9299,0.9365,0.9322,0.9315,0.9292,0.9257,0.9253,0.9285,0.9288,0.9226,0.9219,0.9212,0.9138,0.9193,0.9189,0.9187,0.9023,0.902,0.9018,0,0,0,0,0,0,0.9408,0.9397,0.9305,0.9347,0.9336,0.9318,0.9292,0.929,0.9274,0.9251,0.9248,0.9272,0.9227,0.9218,0.9165,0.9136,0.9188,0.9184,0.9025,0.9022,0.9019,0.8989,0,0,0,0,0,0,0.9412,0.9398,0.9375,0.9346,0.9333,0.926,0.929,0.9288,0.9267,0.9269,0.9237,0.9234,0.9228,0.9172,0.9161,0.9131,0.918,0.9027,0.9023,0.902,0.8992,0.8985,0.8979,0,0,0,0,0,0.9416,0.9368,0.9374,0.9363,0.9304,0.9258,0.925,0.9245,0.9264,0.924,0.9226,0.9235,0.9141,0.9166,0.9154,0.9122,0.9029,0.9025,0.902,0.8995,0.8986,0.8979,0,0,0,0,0,0,0.9393,0.9365,0.937,0.9312,0.9287,0.9261,0.923,0.9236,0.9205,0.9209,0.9203,0.9196,0.9142,0.9127,0.9155,0.9061,0.9088,0.9081,0.9073,0.9064,0.9058,0.9062,0.9177,0,0,0,0,0,0.9381,0.9347,0.9324,0.9274,0.9262,0.9248,0.9228,0.9226,0.92,0.919,0.9172,0.9145,0.911,0.9086,0.9053,0.8991,0.8984,0.8963,0.8957,0.8951,0.8945,0.891,0.8901,0.9003,0.9003,0.9004,0,0,0.9356,0.9336,0.9315,0.9269,0.925,0.9214,0.9239,0.92,0.9172,0.9183,0.9132,0.9118,0.9089,0.9031,0.9004,0.9017,0.8915,0.8946,0.8942,0.8938,0.8905,0.8895,0.8887,0.9,0.9001,0.9001,0,0,0.9291,0.9274,0.923,0.9211,0.9182,0.9174,0.9163,0.9136,0.9127,0.9076,0.9083,0.9051,0.899,0.8968,0.8949,0.8878,0.8884,0.8867,0.8832,0.8798,0.879,0.8783,0.8756,0.8747,0.8861,0.8861,0.8861,0,0.9263,0.921,0.9207,0.9167,0.9146,0.9156,0.9112,0.9093,0.9054,0.9039,0.9054,0.8979,0.8959,0.8896,0.8879,0.8864,0.8851,0.887,0.8792,0.8785,0.8778,0.8752,0.8742,0.8859,0.8859,0.886,0.886,0,0.9176,0.9139,0.9108,0.9071,0.9047,0.9005,0.8995,0.8971,0.8972,0.8962,0.891,0.8887,0.8849,0.8835,0.8835,0.8771,0.878,0.8794,0.8819,0.8766,0.8742,0.8732,0.8856,0.8857,0.8858,0.8858,0,0,0.9094,0.9057,0.9045,0.9029,0.8998,0.8968,0.8927,0.8891,0.887,0.8843,0.8807,0.8756,0.8769,0.8747,0.8745,0.8716,0.866,0.8733,0.8732,0.8719,0.8588,0.8577,0.8566,0.8665,0.8663,0.8662,0.859,0,0.9025,0.8953,0.895,0.8883,0.8848,0.8858,0.8821,0.8798,0.8788,0.8756,0.8745,0.8708,0.8728,0.8715,0.8687,0.8673,0.8633,0.8678,0.863,0.8629,0.8636,0.8553,0.8541,0.8475,0.8581,0.8579,0.8578,0,0.8936,0.8907,0.8837,0.8812,0.8797,0.8764,0.8731,0.8701,0.8675,0.8669,0.8646,0.8648,0.8605,0.8634,0.8574,0.8604,0.8585,0.8575,0.8573,0.8566,0.8599,0.8543,0.8453,0.8443,0.8563,0.8564,0.8566,0,0.8881,0.8825,0.8776,0.8761,0.8731,0.8707,0.8693,0.8669,0.8648,0.8618,0.8604,0.857,0.8551,0.8524,0.8517,0.8539,0.8456,0.8485,0.8449,0.8449,0.843,0.8431,0.8334,0.842,0.842,0.842,0.8421,0,0.8804,0.876,0.8751,0.872,0.8672,0.8669,0.8621,0.8608,0.8587,0.8554,0.856,0.8529,0.8522,0.8489,0.8483,0.8434,0.8426,0.8419,0.8418,0.8418,0.8418,0.8403,0.8407,0.8418,0.8418,0.8419,0.8419,0,0.8733,0.8725,0.8672,0.8648,0.8641,0.8606,0.8585,0.8556,0.8547,0.8505,0.8495,0.848,0.8442,0.8433,0.8387,0.8383,0.8324,0.8328,0.8333,0.8333,0.8297,0.83,0.8186,0.8171,0.8268,0.8267,0.8267,0,0.8684,0.8651,0.8624,0.8602,0.8588,0.8553,0.8531,0.8528,0.8505,0.8473,0.8447,0.841,0.8379,0.8318,0.8302,0.8267,0.8269,0.8232,0.8264,0.8265,0.8267,0.8269,0.8265,0.8225,0.8224,0.8223,0.8223,0,0.8597,0.8595,0.8564,0.8531,0.8505,0.8479,0.8454,0.8436,0.8429,0.8403,0.8364,0.8341,0.8295,0.8257,0.8222,0.8207,0.8213,0.8213,0.8203,0.8201,0.8205,0.8201,0.8315,0.8215,0.8216,0.8216,0.8217,0.8217,0.8535,0.8506,0.8482,0.8447,0.8428,0.8405,0.8376,0.8364,0.8332,0.8295,0.8294,0.8252,0.8227,0.8181,0.8164,0.813,0.8141,0.8127,0.8123,0.8119,0.8115,0.8212,0.8124,0.8124,0.8124,0.8124,0.8124,0,0.8447,0.8432,0.84,0.8366,0.8338,0.8348,0.8321,0.8297,0.826,0.8237,0.8207,0.8163,0.8127,0.8109,0.8073,0.805,0.8052,0.804,0.8041,0.8037,0.8107,0.8119,0.8039,0.8039,0.8039,0.8039,0.8039,0.8039,0.8397,0.8349,0.8344,0.8286,0.8272,0.8231,0.8214,0.8193,0.8174,0.8124,0.8095,0.8084,0.8063,0.8026,0.7993,0.7989,0.7975,0.7961,0.7958,0.8024,0.8032,0.8041,0.8052,0.7959,0.7959,0.7891,0.789,0.789]}]]